Regional Weather Roundup
Issued by NWS

Home | Current Version | Previous Version | Text Only | Print | Product List | Glossary On
Versions: 1 2 3 4 5 6 7 8 9 10 11 12 13 14 15 16 17 18 19 20 21 22 23 24 25 26 27
000
ASUS45 KPSR 250110
RWRAZ

ARIZONA HOURLY REGIONAL WEATHER ROUNDUP
NATIONAL WEATHER SERVICE PHOENIX AZ
600 PM MST TUE APR 24 2018

NOTE: FAIR INDICATES FEW OR NO CLOUDS BELOW 12,000 FEET WITH NO
SIGNIFICANT WEATHER AND/OR OBSTRUCTIONS TO VISIBILITY.

AZZ001>003-036-250200-
NORTHWEST ARIZONA

CITY           SKY/WX    TMP DP  RH WIND       PRES   REMARKS
BULLHEAD CITY  PTSUNNY   97  21   6 VRB6G16   29.79S
KINGMAN        MOSUNNY   84  20   9 W10       29.98S
$$

AZZ004>008-015-016-018-250200-
NORTH CENTRAL ARIZONA

CITY           SKY/WX    TMP DP  RH WIND       PRES   REMARKS
GRAND CANYON   SUNNY     71  12  10 VRB5      30.16S
WILLIAMS       MOSUNNY   72  12  10 SW7G13    30.14S
PRESCOTT       PTSUNNY   77  16  10 SW15      30.07R
FLAGSTAFF      MOSUNNY   69  14  12 SW10      30.17S
PAYSON         MOSUNNY   77  14   9 W9        30.08S
PAGE           MOSUNNY   83  18   9 VRB5      29.97R
$$

AZZ009>014-017-250200-
NORTHEAST ARIZONA

CITY           SKY/WX    TMP DP  RH WIND       PRES   REMARKS
WINSLOW        MOSUNNY   84  15   7 W18G24    30.01R
SAINT JOHNS    SUNNY     77   1   5 W10G23    30.04F
WINDOW ROCK    PTSUNNY   72   4   7 W13       30.13R
SHOW LOW       MOSUNNY   73   5   7 SW13G23   30.14S
$$

AZZ540-542>544-546-548-250200-
GREATER PHOENIX AREA

CITY           SKY/WX    TMP DP  RH WIND       PRES   REMARKS
PHOENIX        PTSUNNY   94  22   7 W13       29.82S
BUCKEYE        PTSUNNY   93  21   7 SW7       29.83F
GLENDALE       MOSUNNY   97  19   6 S7        29.84S
LUKE AFB       SUNNY     95  21   7 SW13      29.81F
DEER VALLEY    MOSUNNY   92  19   7 W10       29.85S
SCOTTSDALE     MOSUNNY   93  24   8 W6        29.86F
MESA-FALCON    PTSUNNY   93  27   9 W9        29.85S
MESA-GATEWAY   MOSUNNY   93  25   8 SW6       29.85F
CHANDLER       PTSUNNY   95  21   7 NW6       29.83F
$$

AZZ539-553-250200-
SOUTHWEST MARICOPA COUNTY AND PINAL COUNTY

CITY           SKY/WX    TMP DP  RH WIND       PRES   REMARKS
CASA GRANDE    MOSUNNY   93  26   9 W7        29.86S
GILA BEND      PTSUNNY   96  14   5 W12       29.81S
$$

AZZ503-504-507>509-250200-
SOUTHEAST ARIZONA

CITY           SKY/WX    TMP DP  RH WIND       PRES   REMARKS
TUCSON         PTSUNNY   90  17   7 W13G22    29.94R
DAVIS-MONTHAN  MOSUNNY   90  18   7 W10G22    29.92R
RYAN FIELD     SUNNY     91  19   7 W15       29.93R
NOGALES        PTSUNNY   83  15   8 SW7       30.03F
SIERRA VISTA   CLOUDY    79  18  10 W17       30.08R
DOUGLAS        CLOUDY    83  17   8 W13       30.01R
SAFFORD        MOSUNNY   90  10   5 NW13      29.90S
$$

AZZ532-250200-
SOUTHWEST ARIZONA

CITY           SKY/WX    TMP DP  RH WIND       PRES   REMARKS
YUMA           MOSUNNY   93  44  18 W8        29.81S
$$

CAZ041-043-047-048-061-525>527-560>570-250200-
SOUTHERN CALIFORNIA

CITY           SKY/WX    TMP DP  RH WIND       PRES   REMARKS
DOWNTOWN L.A.  MOSUNNY   65  52  62 CALM      29.98S
L.A. AIRPORT   MOSUNNY   59  51  75 SW10      29.99F
SAN DIEGO      PTSUNNY   63  53  70 NW9       30.03R
BURBANK        SUNNY     75  44  33 SE10      29.96F
ONTARIO        PTSUNNY   77  43  29 W12       29.97R
RIVERSIDE      MOSUNNY   77  26  15 W16       29.96R
PALM SPRINGS   PTSUNNY   96  28   9 NW15G25   29.83S
EL CENTRO NAS  PTSUNNY   96  35  11 E6        29.80F
IMPERIAL       PTSUNNY   97  36  12 SE9       29.78S
BLYTHE         PTSUNNY   97  30   9 S13       29.79S
NEEDLES        MOSUNNY   99  17   5 W8        29.81S
$$

NVZ020-UTZ003-250200-
SOUTHERN NEVADA-UTAH

CITY           SKY/WX    TMP DP  RH WIND       PRES   REMARKS
LAS VEGAS      PTSUNNY   89  25  10 E9        29.89F
SALT LAKE CITY MOSUNNY   64  33  31 NW14      30.22F
$$

NMZ009-TXZ055-250200-
NEW MEXICO-WEST TEXAS

CITY           SKY/WX    TMP DP  RH WIND       PRES   REMARKS
ALBUQUERQUE    MOCLDY    81  15   8 S12       30.00S
EL PASO        MOCLDY    88  17   7 SW10      29.96S
$$


........................KEY........................
SKY/WX - SKY CONDITION/WEATHER
TMP    - TEMPERATURE IN FAHRENHEIT
DP     - DEW POINT IN FAHRENHEIT
RH     - RELATIVE HUMIDITY IN PERCENT
WIND   - DIRECTION AND SPEED IN MILES PER HOUR (MPH)
VRB    - VARIABLE WIND DIRECTION
PRES   - MEAN SEA LEVEL PRESSURE IN INCHES OF MERCURY
         F - FALLING PRESSURE   R - RISING PRESSURE
         S - STEADY PRESSURE
VSB    - VISIBILITY IN MILES
HX     - HEAT INDEX IN FAHRENHEIT
WCI    - WIND CHILL INDEX IN FAHRENHEIT
TC     - TEMPERATURE IN CELSIUS WHICH IS ALSO KNOWN AS
         TEMPERATURE IN CENTIGRADE
AFB    - AIR FORCE BASE
         LUKE AFB IS LUKE AIR FORCE BASE
         DAVIS-MONTHAN IS DAVIS-MONTHAN AIR FORCE BASE
NAS    - NAVAL AIR STATION
         EL CENTRO NAS IS EL CENTRO NAVAL AIR STATION
N/A    - NOT AVAILABLE





USA.gov is the U.S. government's official web portal to all federal, state and local government web resources and services.